FW9346 Weather Reports


time (UTC)temp
F
wind
direction
speed
knots
gust
knots
rain 1hr
in
rain 24hr
in
rain mn
in
humidity
%
barometer
mb
20260504204546 81 57 14.8 24.3 0.00 0.00 0.00 29 1002.1
20260504203101 82 44 8.7 17.4 0.00 0.00 0.00 28 1002.0
20260504201544 82 90 8.7 16.5 0.00 0.00 0.00 28 1001.9
20260504200051 83 87 13.9 20.0 0.00 0.00 0.00 25 1001.8
20260504194550 83 341 3.5 12.2 0.00 0.00 0.00 21 1001.8
20260504193050 82 19 7.8 16.5 0.00 0.00 0.00 22 1002.1
20260504191550 82 22 7.0 16.5 0.00 0.00 0.00 23 1002.0
20260504184551 82 9 8.7 16.5 0.00 0.00 0.00 24 1002.6
20260504183041 81 32 8.7 16.5 0.00 0.00 0.00 25 1002.4
20260504181542 81 77 6.1 16.5 0.00 0.00 0.00 25 1002.6
20260504180050 81 5 10.4 18.2 0.00 0.00 0.00 25 1002.7
20260504174553 81 355 6.1 16.5 0.00 0.00 0.00 25 1002.7
20260504173050 80 33 7.0 12.2 0.00 0.00 0.00 27 1002.8
20260504171551 79 40 3.5 13.9 0.00 0.00 0.00 30 1002.8
20260504081539 55 140 0.9 3.5 0.00 0.00 0.00 60 1003.4
20260504044543 60 360 1.7 5.2 0.00 0.00 0.00 50 1006.6
20260504043049 60 360 2.6 5.2 0.00 0.00 0.00 50 1007.0
20260504041543 61 360 2.6 7.0 0.00 0.00 0.00 48 1007.0
20260504040048 63 105 3.5 6.1 0.00 0.00 0.00 46 1007.2
20260504034543 63 360 4.3 8.7 0.00 0.00 0.00 46 1007.4
20260504033043 64 360 4.3 7.0 0.00 0.00 0.00 45 1007.5
20260504031546 65 360 4.3 9.6 0.00 0.00 0.00 44 1007.7
20260504030043 65 360 5.2 9.6 0.00 0.00 0.00 43 1007.6
20260504024601 66 360 5.2 10.4 0.00 0.00 0.00 42 1007.6
20260504023048 66 360 2.6 7.0 0.00 0.00 0.00 42 1007.7
20260504021544 67 360 4.3 8.7 0.00 0.00 0.00 40 1007.6
20260504020046 69 360 3.5 8.7 0.00 0.00 0.00 39 1007.5
20260504014541 69 360 3.5 7.0 0.00 0.00 0.00 38 1007.3
20260504013051 70 360 4.3 8.7 0.00 0.00 0.00 37 1007.5
20260504011545 71 360 3.5 8.7 0.00 0.00 0.00 36 1007.5
20260504010052 72 360 4.3 8.7 0.00 0.00 0.00 35 1007.6
20260504004547 73 81 6.1 11.3 0.00 0.00 0.00 34 1007.7
20260504003046 74 85 7.8 11.3 0.00 0.00 0.00 33 1007.7
20260504001543 74 92 7.8 14.8 0.00 0.00 0.00 33 1007.6
20260504000106 75 91 5.2 9.6 0.00 0.00 0.00 32 1007.7
20260503234551 76 106 4.3 9.6 0.00 0.00 0.00 31 1007.9
20260503233043 76 84 6.1 9.6 0.00 0.00 0.00 30 1007.9
20260503231545 77 90 5.2 10.4 0.00 0.00 0.00 30 1008.2
20260503230042 77 118 5.2 10.4 0.00 0.00 0.00 29 1008.2
20260503224539 78 75 2.6 8.7 0.00 0.00 0.00 28 1008.3
20260503223040 79 223 1.7 5.2 0.00 0.00 0.00 27 1008.4
20260503221551 78 347 1.7 7.0 0.00 0.00 0.00 27 1008.7
20260503220043 78 44 3.5 11.3 0.00 0.00 0.00 28 1008.8
20260503214543 79 51 2.6 7.0 0.00 0.00 0.00 27 1009.0
20260503213048 79 184 2.6 6.1 0.00 0.00 0.00 28 1009.1
20260503211559 79 131 3.5 6.1 0.00 0.00 0.00 28 1009.2
20260503210048 78 347 0.9 5.2 0.00 0.00 0.00 28 1009.5